FW8940 Weather Reports


Display with metric or nautical units.
time (UTC)temp
F
wind
direction
speed
MPH
gust
MPH
rain 1hr
in
rain 24hr
in
rain mn
in
humidity
%
barometer
mb
20210926001613 77 85 0.0 2.0 0.00 0.00 0.00 19 1018.8
20210926000136 82 0 0.0 1.0 0.00 0.00 0.00 17 1018.6
20210925234625 83 85 0.0 1.0 0.00 0.00 0.00 15 1018.6
20210925233144 82 0 0.0 7.0 0.00 0.00 0.00 15 1018.6
20210925231653 83 95 2.0 6.0 0.00 0.00 0.00 13 1018.6
20210925230119 82 78 0.0 6.0 0.00 0.00 0.00 14 1018.7
20210925224655 83 95 1.0 4.0 0.00 0.00 0.00 13 1018.8
20210925223235 83 64 1.0 5.0 0.00 0.00 0.00 13 1018.9
20210925221622 84 95 2.0 6.0 0.00 0.00 0.00 12 1018.9
20210925220136 84 109 1.0 9.0 0.00 0.00 0.00 13 1019.2
20210925214613 85 76 2.0 8.0 0.00 0.00 0.00 12 1019.2
20210925213203 86 85 3.0 7.0 0.00 0.00 0.00 12 1019.4
20210925211632 86 43 0.0 6.0 0.00 0.00 0.00 15 1019.7
20210925210205 85 105 2.0 6.0 0.00 0.00 0.00 13 1020.0
20210925204643 84 99 1.0 7.0 0.00 0.00 0.00 12 1020.0
20210925203132 85 85 2.0 11.0 0.00 0.00 0.00 14 1020.3
20210925201646 83 0 1.0 8.0 0.00 0.00 0.00 16 1020.6
20210925200311 83 34 3.0 8.0 0.00 0.00 0.00 16 1020.8
20210925194849 84 95 4.0 10.0 0.00 0.00 0.00 15 1021.2
20210925193131 83 27 1.0 8.0 0.00 0.00 0.00 16 1021.6
20210925191652 82 90 2.0 7.0 0.00 0.00 0.00 16 1021.9
20210925190122 81 0 1.0 6.0 0.00 0.00 0.00 16 1022.3
20210925184616 79 110 1.0 9.0 0.00 0.00 0.00 17 1022.4
20210925183252 78 109 2.0 9.0 0.00 0.00 0.00 18 1022.6
20210925181635 76 199 0.0 9.0 0.00 0.00 0.00 22 1022.8
20210925180153 75 209 1.0 8.0 0.00 0.00 0.00 22 1023.0
20210925174723 73 111 0.0 5.0 0.00 0.00 0.00 24 1023.1
20210925173144 72 95 1.0 8.0 0.00 0.00 0.00 24 1023.2
20210925171719 72 138 1.0 4.0 0.00 0.00 0.00 27 1023.5
20210925170342 70 164 1.0 4.0 0.00 0.00 0.00 26 1023.7
20210925164629 69 75 1.0 4.0 0.00 0.00 0.00 31 1024.1
20210925163215 68 197 1.0 4.0 0.00 0.00 0.00 30 1024.1
20210925161630 66 139 1.0 4.0 0.00 0.00 0.00 33 1024.2
20210925160142 65 61 0.0 3.0 0.00 0.00 0.00 35 1024.2
20210925154730 64 0 0.0 3.0 0.00 0.00 0.00 39 1024.1
20210925153215 63 0 0.0 3.0 0.00 0.00 0.00 44 1024.0
20210925151657 61 82 1.0 2.0 0.00 0.00 0.00 42 1024.2
20210925150144 60 0 0.0 2.0 0.00 0.00 0.00 44 1024.2
20210925144628 59 56 0.0 3.0 0.00 0.00 0.00 45 1024.3
20210925143141 58 0 0.0 1.0 0.00 0.00 0.00 46 1024.3
20210925141645 57 0 0.0 1.0 0.00 0.00 0.00 47 1024.3
20210925140115 56 0 0.0 2.0 0.00 0.00 0.00 45 1024.3
20210925134813 55 0 0.0 1.0 0.00 0.00 0.00 45 1024.3
20210925133210 53 0 0.0 0.0 0.00 0.00 0.00 43 1024.1
20210925131632 53 0 0.0 2.0 0.00 0.00 0.00 44 1023.9
20210925130131 53 184 0.0 2.0 0.00 0.00 0.00 43 1024.1
20210925124746 54 0 0.0 2.0 0.00 0.00 0.00 40 1023.8
20210925123157 55 72 0.0 4.0 0.00 0.00 0.00 39 1023.7
20210925121647 55 9 0.0 2.0 0.00 0.00 0.00 41 1023.5
20210925120240 54 256 0.0 3.0 0.00 0.00 0.00 40 1023.6
20210925114649 54 288 0.0 4.0 0.00 0.00 0.00 41 1023.6
20210925113201 53 0 0.0 2.0 0.00 0.00 0.00 42 1023.7
20210925111634 54 206 0.0 2.0 0.00 0.00 0.00 41 1023.7
20210925110202 55 0 0.0 4.0 0.00 0.00 0.00 40 1023.7
20210925104724 54 268 0.0 1.0 0.00 0.00 0.00 41 1023.5
20210925103206 53 310 0.0 3.0 0.00 0.00 0.00 43 1023.6
20210925101727 53 0 0.0 4.0 0.00 0.00 0.00 45 1023.7
20210925100209 53 0 0.0 3.0 0.00 0.00 0.00 45 1023.7
20210925094700 53 243 0.0 2.0 0.00 0.00 0.00 46 1023.7
20210925093211 54 0 0.0 2.0 0.00 0.00 0.00 44 1023.8
20210925091630 54 205 1.0 5.0 0.00 0.00 0.00 43 1023.8
20210925090134 54 225 0.0 2.0 0.00 0.00 0.00 45 1023.9
20210925084630 54 214 2.0 7.0 0.00 0.00 0.00 46 1023.9
20210925083116 52 286 1.0 5.0 0.00 0.00 0.00 48 1024.1
20210925081644 52 267 0.0 2.0 0.00 0.00 0.00 51 1024.1
20210925080252 52 267 0.0 2.0 0.00 0.00 0.00 52 1024.2
20210925074740 52 267 0.0 2.0 0.00 0.00 0.00 53 1024.3
20210925073238 52 267 0.0 1.0 0.00 0.00 0.00 53 1024.5
20210925071630 52 267 0.0 2.0 0.00 0.00 0.00 51 1024.6
20210925070153 53 267 0.0 1.0 0.00 0.00 0.00 51 1024.8
20210925064725 53 267 1.0 2.0 0.00 0.00 0.00 50 1024.8
20210925063305 54 267 0.0 2.0 0.00 0.00 0.00 49 1025.0
20210925061751 54 0 0.0 1.0 0.00 0.00 0.00 48 1025.2
20210925060207 55 0 0.0 1.0 0.00 0.00 0.00 47 1025.2
20210925054627 55 267 1.0 2.0 0.00 0.00 0.00 47 1025.1
20210925053200 55 267 1.0 3.0 0.00 0.00 0.00 46 1025.0
20210925051707 55 265 0.0 2.0 0.00 0.00 0.00 47 1025.3
20210925050217 55 265 0.0 1.0 0.00 0.00 0.00 47 1025.2
20210925044721 55 265 0.0 2.0 0.00 0.00 0.00 48 1025.3
20210925043106 55 265 0.0 1.0 0.00 0.00 0.00 48 1025.5
20210925041630 55 265 0.0 1.0 0.00 0.00 0.00 46 1025.5
20210925040147 56 0 0.0 2.0 0.00 0.00 0.00 45 1025.4
20210925034657 57 0 0.0 2.0 0.00 0.00 0.00 44 1025.5
20210925033231 58 0 0.0 2.0 0.00 0.00 0.00 44 1025.7
20210925031724 58 0 0.0 2.0 0.00 0.00 0.00 42 1025.5
20210925030220 58 265 1.0 3.0 0.00 0.00 0.00 42 1025.6
20210925024733 59 265 1.0 3.0 0.00 0.00 0.00 42 1025.6
20210925023142 59 265 1.0 3.0 0.00 0.00 0.00 42 1025.4
20210925021600 61 274 1.0 3.0 0.00 0.00 0.00 40 1025.5
20210925020147 61 267 1.0 3.0 0.00 0.00 0.00 39 1025.3
20210925014654 61 273 1.0 3.0 0.00 0.00 0.00 38 1025.1
20210925013225 62 292 1.0 3.0 0.00 0.00 0.00 38 1025.2
20210925011658 62 310 1.0 4.0 0.00 0.00 0.00 37 1024.9
20210925010224 63 281 1.0 4.0 0.00 0.00 0.00 36 1025.1
20210925004622 65 295 0.0 3.0 0.00 0.00 0.00 35 1024.9
20210925003210 67 278 0.0 3.0 0.00 0.00 0.00 34 1024.9